(461088) = 2010 DK13 = 2015 AW198

Discovered at Kitt Peak on 2007-03-20 by Spacewatch.

Orbit

Orbit type: Main Belt

Note: WebGL enabled browser required.

epoch2023-09-13.0
epoch JD2460200.5
perihelion date2022-04-13.52574
perihelion JD2459683.02574
argument of perihelion (°)246.72624
ascending node (°)55.63920
inclination (°)5.22329
eccentricity0.0481334
perihelion distance (AU)2.6501994
Tisserand w.r.t. Jupiter3.3
ΔV w.r.t. Earth (km/sec)10.3
semimajor axis (AU)2.7842129
mean anomaly (°)109.78397
mean daily motion (°/day)0.21215350
aphelion distance (AU)2.918
period (years)4.65
P-vector [x]0.53216839
P-vector [y]-0.73971097
P-vector [z]-0.41185494
Q-vector [x]0.84329656
Q-vector [y]0.50630219
Q-vector [z]0.18030252
absolute magnitude16.37
phase slope0.15
uncertainty0
referenceMPEC 2023-Y46
observations used331
oppositions13
arc length (days)6549
first opposition used2006
last opposition used2023
residual rms (arc-secs)0.74
perturbers coarse indicatorM-v
perturbers precise indicator003Ek
first observation date used2006-01-09.0
last observation date used2023-12-15.0
computer nameMPCLINUX
JD of orbit computation2457406.397294
perihelion JD uncertainty (days)7.1563E-04
argument of perihelion uncertainty (°)1.7134E-04
ascending node uncertainty (°)9.5902E-05
inclination uncertainty (°)9.5061E-06
eccentricity uncertainty 8.6370E-08
perihelion distance uncertainty (AU)2.3815E-07
Minimum Orbit Intersection Distances (in AU)
for orbit epoch: 2460200.5, reference: E2023-Y46
Mercury2.20026
Venus1.92289
Earth1.63954
Mars1.18313
Jupiter2.17501
Saturn6.16363
Uranus15.5703
Neptune27.0452

Observations

337 total observations over interval: 2006 01 09.39531 – 2023 12 15.263849
These data are available for download (format description).

Date (UT) J2000 RA J2000 Dec Magn Location Ref
2006 01 09.39531 08 50 15.28 +25 01 51.2 21.0 V G96 – Mt. Lemmon Survey MPS 571126
2006 01 09.40043 08 50 15.07 +25 01 52.8 20.6 V G96 – Mt. Lemmon Survey MPS 571126
2006 01 09.40552 08 50 14.82 +25 01 54.5 20.1 V G96 – Mt. Lemmon Survey MPS 571126
2006 01 09.41061 08 50 14.60 +25 01 55.2 19.9 V G96 – Mt. Lemmon Survey MPS 571126
2007 03 20.47748 14 46 52.51 -12 34 15.9 21.3 V 691 – Steward Observatory, Kitt Peak-Spacewatch MPS 571126
2007 03 20.49520 14 46 52.20 -12 34 15.0 21.2 V 691 – Steward Observatory, Kitt Peak-Spacewatch MPS 571126
2007 03 20.51293 14 46 51.88 -12 34 14.4 21.5 V 691 – Steward Observatory, Kitt Peak-Spacewatch MPS 571126
2007 04 22.33838 14 26 36.63 -11 31 35.5 19.6 V G96 – Mt. Lemmon Survey MPS 571126
2007 04 22.34551 14 26 36.24 -11 31 34.1 20.1 V G96 – Mt. Lemmon Survey MPS 571126
2007 04 22.35265 14 26 35.84 -11 31 33.0 19.9 V G96 – Mt. Lemmon Survey MPS 571126
2007 04 22.35978 14 26 35.44 -11 31 31.8 19.8 V G96 – Mt. Lemmon Survey MPS 571126
2009 09 20.43200 04 49 48.39 +22 13 00.5 21.6 V G96 – Mt. Lemmon Survey MPS 571126
2009 09 20.44095 04 49 48.68 +22 13 01.5 21.3 V G96 – Mt. Lemmon Survey MPS 571126
2009 09 20.44789 04 49 48.86 +22 13 02.3 21.1 V G96 – Mt. Lemmon Survey MPS 571126
2009 09 20.45485 04 49 49.11 +22 13 03.0 20.1 V G96 – Mt. Lemmon Survey MPS 571126
2009 11 08.31757 04 43 25.01 +23 18 38.3 21.3 V 691 – Steward Observatory, Kitt Peak-Spacewatch MPS 571126
2009 11 08.33477 04 43 24.19 +23 18 38.6 21.0 V 691 – Steward Observatory, Kitt Peak-Spacewatch MPS 571126
2009 11 08.35195 04 43 23.37 +23 18 39.4 20.5 V 691 – Steward Observatory, Kitt Peak-Spacewatch MPS 571126
2009 11 25.22891 04 28 12.87 +23 18 39.8 20.3 V 691 – Steward Observatory, Kitt Peak-Spacewatch MPS 571126
2009 11 25.24671 04 28 11.79 +23 18 39.4 20.5 V 691 – Steward Observatory, Kitt Peak-Spacewatch MPS 571126
2009 11 25.26452 04 28 10.73 +23 18 39.0 20.1 V 691 – Steward Observatory, Kitt Peak-Spacewatch MPS 571126
2009 12 16.27083 04 08 07.04 +23 02 28.2 20.2 V G96 – Mt. Lemmon Survey MPS 571126
2009 12 16.27884 04 08 06.61 +23 02 28.1 20.2 V G96 – Mt. Lemmon Survey MPS 571126
2009 12 16.28690 04 08 06.14 +23 02 27.4 20.2 V G96 – Mt. Lemmon Survey MPS 571126
2010 02 16.02094 04 03 23.58 +23 27 42.2   C51 – WISE MPS 313936
2010 02 16.02094 04 03 23.51 +23 27 42.0   C51 – WISE MPS 313936
2010 02 16.153374 04 03 28.92 +23 27 58.4   C51 – WISE MPS 313936
2010 02 16.285677 04 03 34.40 +23 28 15.5   C51 – WISE MPS 313936
2010 02 16.417981 04 03 39.85 +23 28 32.0   C51 – WISE MPS 313936
2010 02 16.616501 04 03 48.10 +23 28 56.4   C51 – WISE MPS 313936
2010 02 16.68259 04 03 50.82 +23 29 03.7   C51 – WISE MPS 375360
2010 02 16.682718 04 03 50.91 +23 29 04.0   C51 – WISE MPS 375360
2010 02 16.748806 04 03 53.64 +23 29 13.4   C51 – WISE MPS 313936
2010 02 16.815022 04 03 56.36 +23 29 20.9   C51 – WISE MPS 313936
2010 02 16.881110 04 03 59.16 +23 29 29.1   C51 – WISE MPS 375360
2010 02 17.013414 04 04 04.67 +23 29 45.7   C51 – WISE MPS 375360
2010 02 17.145846 04 04 10.22 +23 30 01.6   C51 – WISE MPS 313936
2011 03 09.20181 10 33 58.21 +17 17 34.8 20.0 V G96 – Mt. Lemmon Survey MPS 571126
2011 03 09.21117 10 33 57.74 +17 17 36.4 20.2 V G96 – Mt. Lemmon Survey MPS 571126
2011 03 09.22034 10 33 57.24 +17 17 38.8 20.1 V G96 – Mt. Lemmon Survey MPS 571126
2011 03 09.22966 10 33 56.77 +17 17 40.7 20.3 V G96 – Mt. Lemmon Survey MPS 571126
2013 09 06.33819 00 46 50.23 -02 06 49.1 20.4 V 703 – Catalina Sky Survey MPS 571126
2013 09 06.34551 00 46 49.95 -02 06 52.7 20.0 V 703 – Catalina Sky Survey MPS 571126
2013 09 06.35286 00 46 49.59 -02 06 52.2 20.3 V 703 – Catalina Sky Survey MPS 571126
2013 09 06.36026 00 46 49.46 -02 06 54.9 20.7 V 703 – Catalina Sky Survey MPS 571126
2013 09 28.28046 00 30 12.34 -03 40 36.3 19.6 V G96 – Mt. Lemmon Survey MPS 571126
2013 09 28.28803 00 30 11.96 -03 40 38.4 19.5 V G96 – Mt. Lemmon Survey MPS 571126
2013 09 28.29566 00 30 11.55 -03 40 40.1 19.6 V G96 – Mt. Lemmon Survey MPS 571126
2013 09 28.30327 00 30 11.14 -03 40 42.0 19.6 V G96 – Mt. Lemmon Survey MPS 571126
2013 09 30.70290 00 28 08.73 -03 50 17.8 19.7 R D29 – Purple Mountain Observatory, XuYi Station MPS 571126
2013 09 30.71880 00 28 07.94 -03 50 21.7 19.9 R D29 – Purple Mountain Observatory, XuYi Station MPS 571126
2013 09 30.73471 00 28 07.13 -03 50 25.6 20.4 R D29 – Purple Mountain Observatory, XuYi Station MPS 571126
2013 10 04.29030 00 25 06.85 -04 03 50.6 20.6 V 703 – Catalina Sky Survey MPS 571126
2013 10 04.30054 00 25 06.27 -04 03 52.3 20.1 V 703 – Catalina Sky Survey MPS 571126
2013 10 04.30843 00 25 05.87 -04 03 54.6 20.1 V 703 – Catalina Sky Survey MPS 571126
2013 10 04.31629 00 25 05.49 -04 03 55.4 20.8 V 703 – Catalina Sky Survey MPS 571126
2014 11 19.43750 07 14 13.09 +26 27 41.8 21.6 V G96 – Mt. Lemmon Survey MPS 571126
2014 11 19.44510 07 14 13.00 +26 27 43.0 20.8 V G96 – Mt. Lemmon Survey MPS 571126
2014 11 19.45269 07 14 12.89 +26 27 44.2 20.8 V G96 – Mt. Lemmon Survey MPS 571126
2014 11 19.46237 07 14 12.75 +26 27 45.9 21.0 V G96 – Mt. Lemmon Survey MPS 571126
2014 12 24.38900 06 51 27.92 +28 14 29.7 19.9 V G96 – Mt. Lemmon Survey MPS 571126
2014 12 24.38957 06 51 27.88 +28 14 29.8 19.8 V G96 – Mt. Lemmon Survey MPS 571126
2014 12 24.39370 06 51 27.64 +28 14 30.9 20.0 V G96 – Mt. Lemmon Survey MPS 571126
2014 12 24.39427 06 51 27.64 +28 14 30.9 20.1 V G96 – Mt. Lemmon Survey MPS 571126
2014 12 24.39839 06 51 27.35 +28 14 31.3 20.0 V G96 – Mt. Lemmon Survey MPS 571126
2014 12 24.39895 06 51 27.33 +28 14 31.5 20.1 V G96 – Mt. Lemmon Survey MPS 571126
2014 12 24.40307 06 51 27.08 +28 14 32.1 19.8 V G96 – Mt. Lemmon Survey MPS 571126
2014 12 24.40364 06 51 27.03 +28 14 32.6 20.0 V G96 – Mt. Lemmon Survey MPS 571126
2015 01 14.42482 06 30 25.004 +28 54 28.30 20.4 w F51 – Pan-STARRS 1, Haleakala MPS 563064
2015 01 14.43774 06 30 24.265 +28 54 28.93 20.5 w F51 – Pan-STARRS 1, Haleakala MPS 563064
2015 01 14.45065 06 30 23.521 +28 54 29.72 20.5 w F51 – Pan-STARRS 1, Haleakala MPS 563064
2015 01 16.44701 06 28 34.485 +28 56 21.12 20.7 w F51 – Pan-STARRS 1, Haleakala MPS 563064
2015 01 16.45866 06 28 33.840 +28 56 21.58 20.5 w F51 – Pan-STARRS 1, Haleakala MPS 563064
2015 01 16.47021 06 28 33.205 +28 56 22.04 20.7 w F51 – Pan-STARRS 1, Haleakala MPS 563064
2015 01 19.28826 06 26 06.43 +28 58 24.6 21.4 r G45 – Space Surveillance Telescope, Atom Site MPS 571126
2015 01 19.29718 06 26 05.95 +28 58 24.7 20.6 r G45 – Space Surveillance Telescope, Atom Site MPS 571126
2015 01 19.30136 06 26 05.75 +28 58 24.9 21.0 r G45 – Space Surveillance Telescope, Atom Site MPS 571126
2015 01 19.30988 06 26 05.26 +28 58 25.7 21.3 r G45 – Space Surveillance Telescope, Atom Site MPS 571126
2016 01 18.61251 13 02 00.213 -00 53 43.08 21.5 w F51 – Pan-STARRS 1, Haleakala MPS 671925
2016 01 18.62437 13 02 00.565 -00 53 44.61 21.4 w F51 – Pan-STARRS 1, Haleakala MPS 671925
2016 01 18.63625 13 02 00.909 -00 53 45.98 21.2 w F51 – Pan-STARRS 1, Haleakala MPS 671925
2016 01 18.64813 13 02 01.261 -00 53 47.53 21.5 w F51 – Pan-STARRS 1, Haleakala MPS 671925
2016 03 14.49377 12 56 23.198 +00 28 30.18 20.2 w F51 – Pan-STARRS 1, Haleakala MPS 695951
2016 03 14.50592 12 56 22.664 +00 28 33.17 20.5 w F51 – Pan-STARRS 1, Haleakala MPS 695951
2016 03 14.51813 12 56 22.118 +00 28 36.40 20.5 w F51 – Pan-STARRS 1, Haleakala MPS 695951
2016 03 14.53022 12 56 21.587 +00 28 39.38 20.3 w F51 – Pan-STARRS 1, Haleakala MPS 695951
2016 03 28.35183 12 45 29.35 +01 28 47.4 20.1 V G96 – Mt. Lemmon Survey MPS 698687
2016 03 28.36022 12 45 28.88 +01 28 49.5 20.3 V G96 – Mt. Lemmon Survey MPS 698687
2016 03 28.36861 12 45 28.47 +01 28 51.8 20.1 V G96 – Mt. Lemmon Survey MPS 698687
2016 03 28.37699 12 45 28.03 +01 28 53.8 20.1 V G96 – Mt. Lemmon Survey MPS 698687
2016 04 03.20089 12 40 32.22 +01 52 56.4 20.7 r G45 – Space Surveillance Telescope, Atom Site MPS 703722
2016 04 03.20599 12 40 31.96 +01 52 57.9 20.4 r G45 – Space Surveillance Telescope, Atom Site MPS 703722
2016 04 03.21105 12 40 31.64 +01 52 59.1 20.2 r G45 – Space Surveillance Telescope, Atom Site MPS 703722
2016 04 03.21626 12 40 31.40 +01 53 00.0 20.3 r G45 – Space Surveillance Telescope, Atom Site MPS 703722
